Time,TemperatureF,DewpointF,PressureIn,WindDirection,WindDirectionDegrees,WindSpeedMPH,WindSpeedGustMPH,Humidity,HourlyPrecipIn,Conditions,Clouds,dailyrainin,SoftwareType,DateUTC
2013-03-03 00:00:00,14.8,10.9,30.30,North,355,0.0,1.0,84,0.00,,---,0.00,VWS V14.01,2013-03-03 09:00:00,
2013-03-03 00:04:00,14.8,11.1,30.30,North,355,0.0,0.0,85,0.00,,---,0.00,VWS V14.01,2013-03-03 09:04:00,
2013-03-03 00:09:00,14.8,11.1,30.30,North,355,0.0,0.0,85,0.00,,---,0.00,VWS V14.01,2013-03-03 09:09:00,
2013-03-03 00:14:00,14.8,11.1,30.30,North,355,0.0,1.0,85,0.00,,---,0.00,VWS V14.01,2013-03-03 09:14:00,
2013-03-03 00:19:00,14.8,10.9,30.30,North,355,0.0,1.0,84,0.00,,---,0.00,VWS V14.01,2013-03-03 09:19:00,
2013-03-03 00:24:00,14.9,10.9,30.30,North,355,0.0,1.0,84,0.00,,---,0.00,VWS V14.01,2013-03-03 09:24:00,
2013-03-03 00:29:00,15.0,11.1,30.31,North,355,0.0,1.0,84,0.00,,---,0.00,VWS V14.01,2013-03-03 09:29:00,
2013-03-03 00:30:00,15.0,10.8,30.31,North,355,0.0,1.0,83,0.00,,---,0.00,VWS V14.01,2013-03-03 09:30:00,
2013-03-03 00:34:00,14.9,10.7,30.31,North,355,0.0,0.0,83,0.00,,---,0.00,VWS V14.01,2013-03-03 09:34:00,
2013-03-03 00:39:00,14.9,10.7,30.31,North,355,0.0,0.0,83,0.00,,---,0.00,VWS V14.01,2013-03-03 09:39:00,
2013-03-03 00:44:00,14.9,10.9,30.31,North,355,0.0,0.0,84,0.00,,---,0.00,VWS V14.01,2013-03-03 09:44:00,
2013-03-03 00:49:00,14.9,10.7,30.31,North,355,0.0,0.0,83,0.00,,---,0.00,VWS V14.01,2013-03-03 09:49:00,
2013-03-03 00:54:00,14.8,10.9,30.31,North,355,0.0,0.0,84,0.00,,---,0.00,VWS V14.01,2013-03-03 09:54:00,
2013-03-03 00:59:00,14.9,10.9,30.31,North,355,0.0,0.0,84,0.00,,---,0.00,VWS V14.01,2013-03-03 09:59:00,
2013-03-03 01:00:00,14.9,11.2,30.31,North,355,0.0,0.0,85,0.00,,---,0.00,VWS V14.01,2013-03-03 10:00:00,
2013-03-03 01:04:00,15.1,11.4,30.31,North,355,0.0,0.0,85,0.00,,---,0.00,VWS V14.01,2013-03-03 10:04:00,
2013-03-03 01:09:00,15.8,12.1,30.32,North,355,0.0,0.0,85,0.00,,---,0.00,VWS V14.01,2013-03-03 10:09:00,
2013-03-03 01:14:00,16.4,12.4,30.31,North,355,0.0,0.0,84,0.00,,---,0.00,VWS V14.01,2013-03-03 10:14:00,
2013-03-03 01:19:00,16.9,12.6,30.32,North,355,0.0,0.0,83,0.00,,---,0.00,VWS V14.01,2013-03-03 10:19:00,
2013-03-03 01:24:00,17.2,12.7,30.31,North,355,0.0,1.0,82,0.00,,---,0.00,VWS V14.01,2013-03-03 10:24:00,
2013-03-03 01:29:00,17.3,12.5,30.31,North,355,0.0,1.0,81,0.00,,---,0.00,VWS V14.01,2013-03-03 10:29:00,
2013-03-03 01:30:00,17.2,12.4,30.32,North,355,0.0,1.0,81,0.00,,---,0.00,VWS V14.01,2013-03-03 10:30:00,
2013-03-03 01:34:00,17.6,12.8,30.31,North,355,0.0,1.0,81,0.00,,---,0.00,VWS V14.01,2013-03-03 10:34:00,
2013-03-03 01:39:00,17.7,12.9,30.32,North,355,0.0,1.0,81,0.00,,---,0.00,VWS V14.01,2013-03-03 10:39:00,
2013-03-03 01:44:00,17.7,12.6,30.32,North,355,0.0,1.0,80,0.00,,---,0.00,VWS V14.01,2013-03-03 10:44:00,
2013-03-03 01:49:00,17.6,12.5,30.32,North,355,0.0,1.0,80,0.00,,---,0.00,VWS V14.01,2013-03-03 10:49:00,
2013-03-03 01:54:00,17.5,12.4,30.32,North,355,0.0,1.0,80,0.00,,---,0.00,VWS V14.01,2013-03-03 10:54:00,
2013-03-03 01:59:00,17.2,12.4,30.32,North,355,0.0,1.0,81,0.00,,---,0.00,VWS V14.01,2013-03-03 10:59:00,
2013-03-03 02:00:00,17.2,12.4,30.32,North,355,0.0,1.0,81,0.00,,---,0.00,VWS V14.01,2013-03-03 11:00:00,
2013-03-03 02:04:00,17.0,11.9,30.32,North,355,0.0,0.0,80,0.00,,---,0.00,VWS V14.01,2013-03-03 11:04:00,
2013-03-03 02:09:00,16.7,11.6,30.33,North,355,0.0,0.0,80,0.00,,---,0.00,VWS V14.01,2013-03-03 11:09:00,
2013-03-03 02:14:00,16.5,11.7,30.33,North,355,0.0,0.0,81,0.00,,---,0.00,VWS V14.01,2013-03-03 11:14:00,
2013-03-03 02:19:00,16.3,11.5,30.33,North,355,0.0,0.0,81,0.00,,---,0.00,VWS V14.01,2013-03-03 11:19:00,
2013-03-03 02:24:00,16.3,12.3,30.33,North,355,0.0,0.0,84,0.00,,---,0.00,VWS V14.01,2013-03-03 11:24:00,
2013-03-03 02:29:00,16.3,11.8,30.33,North,355,0.0,0.0,82,0.00,,---,0.00,VWS V14.01,2013-03-03 11:29:00,
2013-03-03 02:30:00,16.2,11.7,30.33,North,355,0.0,0.0,82,0.00,,---,0.00,VWS V14.01,2013-03-03 11:30:00,
2013-03-03 02:34:00,16.0,11.5,30.33,North,355,0.0,1.0,82,0.00,,---,0.00,VWS V14.01,2013-03-03 11:34:00,
2013-03-03 02:39:00,15.7,11.2,30.33,North,355,2.0,2.0,82,0.00,,---,0.00,VWS V14.01,2013-03-03 11:39:00,
2013-03-03 02:44:00,15.4,10.9,30.33,North,355,0.0,2.0,82,0.00,,---,0.00,VWS V14.01,2013-03-03 11:44:00,
2013-03-03 02:49:00,15.4,10.6,30.33,North,355,0.0,2.0,81,0.00,,---,0.00,VWS V14.01,2013-03-03 11:49:00,
2013-03-03 02:54:00,15.5,11.0,30.33,North,355,0.0,2.0,82,0.00,,---,0.00,VWS V14.01,2013-03-03 11:54:00,
2013-03-03 02:59:00,15.8,11.3,30.33,North,355,0.0,2.0,82,0.00,,---,0.00,VWS V14.01,2013-03-03 11:59:00,
2013-03-03 03:00:00,15.9,11.4,30.33,North,355,0.0,2.0,82,0.00,,---,0.00,VWS V14.01,2013-03-03 12:00:00,
2013-03-03 03:04:00,16.0,11.2,30.33,North,355,0.0,0.0,81,0.00,,---,0.00,VWS V14.01,2013-03-03 12:04:00,
2013-03-03 03:09:00,16.1,11.0,30.34,North,355,0.0,0.0,80,0.00,,---,0.00,VWS V14.01,2013-03-03 12:09:00,
2013-03-03 03:14:00,16.1,11.0,30.34,North,355,0.0,0.0,80,0.00,,---,0.00,VWS V14.01,2013-03-03 12:14:00,
2013-03-03 03:19:00,16.0,10.9,30.34,North,355,0.0,0.0,80,0.00,,---,0.00,VWS V14.01,2013-03-03 12:19:00,
2013-03-03 03:24:00,16.2,11.4,30.34,North,355,0.0,0.0,81,0.00,,---,0.00,VWS V14.01,2013-03-03 12:24:00,
2013-03-03 03:29:00,16.4,11.6,30.34,North,355,0.0,0.0,81,0.00,,---,0.00,VWS V14.01,2013-03-03 12:29:00,
2013-03-03 03:30:00,16.4,11.6,30.34,North,355,0.0,0.0,81,0.00,,---,0.00,VWS V14.01,2013-03-03 12:30:00,
2013-03-03 03:34:00,16.5,11.7,30.34,North,355,0.0,0.0,81,0.00,,---,0.00,VWS V14.01,2013-03-03 12:34:00,
2013-03-03 03:39:00,16.6,11.8,30.34,North,355,1.0,1.0,81,0.00,,---,0.00,VWS V14.01,2013-03-03 12:39:00,
2013-03-03 03:44:00,16.5,11.7,30.34,North,355,0.0,1.0,81,0.00,,---,0.00,VWS V14.01,2013-03-03 12:44:00,
2013-03-03 03:49:00,16.5,12.0,30.34,North,355,0.0,1.0,82,0.00,,---,0.00,VWS V14.01,2013-03-03 12:49:00,
2013-03-03 03:54:00,16.5,11.7,30.35,North,355,0.0,1.0,81,0.00,,---,0.00,VWS V14.01,2013-03-03 12:54:00,
2013-03-03 03:59:00,16.3,11.5,30.35,North,355,0.0,1.0,81,0.00,,---,0.00,VWS V14.01,2013-03-03 12:59:00,
2013-03-03 04:00:00,16.4,11.6,30.34,North,355,0.0,1.0,81,0.00,,---,0.00,VWS V14.01,2013-03-03 13:00:00,
2013-03-03 04:04:00,16.3,11.8,30.34,North,355,0.0,0.0,82,0.00,,---,0.00,VWS V14.01,2013-03-03 13:04:00,
2013-03-03 04:09:00,16.6,12.1,30.35,North,355,0.0,0.0,82,0.00,,---,0.00,VWS V14.01,2013-03-03 13:09:00,
2013-03-03 04:14:00,16.6,12.1,30.35,North,355,0.0,0.0,82,0.00,,---,0.00,VWS V14.01,2013-03-03 13:14:00,
2013-03-03 04:19:00,16.4,11.6,30.35,North,355,0.0,0.0,81,0.00,,---,0.00,VWS V14.01,2013-03-03 13:19:00,
2013-03-03 04:24:00,16.2,11.4,30.35,North,355,0.0,0.0,81,0.00,,---,0.00,VWS V14.01,2013-03-03 13:24:00,
2013-03-03 04:29:00,15.9,11.4,30.35,North,355,0.0,0.0,82,0.00,,---,0.00,VWS V14.01,2013-03-03 13:29:00,
2013-03-03 04:30:00,15.7,11.7,30.35,North,355,0.0,0.0,84,0.00,,---,0.00,VWS V14.01,2013-03-03 13:30:00,
2013-03-03 04:34:00,15.6,11.4,30.35,North,355,0.0,0.0,83,0.00,,---,0.00,VWS V14.01,2013-03-03 13:34:00,
2013-03-03 04:39:00,15.6,11.6,30.35,North,355,0.0,2.0,84,0.00,,---,0.00,VWS V14.01,2013-03-03 13:39:00,
2013-03-03 04:44:00,16.1,12.1,30.35,North,355,0.0,2.0,84,0.00,,---,0.00,VWS V14.01,2013-03-03 13:44:00,
2013-03-03 04:49:00,16.2,12.0,30.35,North,355,0.0,2.0,83,0.00,,---,0.00,VWS V14.01,2013-03-03 13:49:00,
2013-03-03 04:54:00,16.1,11.6,30.35,North,355,0.0,2.0,82,0.00,,---,0.00,VWS V14.01,2013-03-03 13:54:00,
2013-03-03 04:59:00,15.8,11.3,30.35,North,355,0.0,2.0,82,0.00,,---,0.00,VWS V14.01,2013-03-03 13:59:00,
2013-03-03 05:00:00,15.6,10.8,30.35,North,355,0.0,2.0,81,0.00,,---,0.00,VWS V14.01,2013-03-03 14:00:00,
2013-03-03 05:04:00,15.3,10.5,30.35,North,355,0.0,0.0,81,0.00,,---,0.00,VWS V14.01,2013-03-03 14:04:00,
2013-03-03 05:09:00,15.0,10.8,30.36,North,355,0.0,0.0,83,0.00,,---,0.00,VWS V14.01,2013-03-03 14:09:00,
2013-03-03 05:14:00,15.3,11.6,30.36,North,355,0.0,0.0,85,0.00,,---,0.00,VWS V14.01,2013-03-03 14:14:00,
2013-03-03 05:19:00,16.0,12.0,30.36,North,355,1.0,2.0,84,0.00,,---,0.00,VWS V14.01,2013-03-03 14:19:00,
2013-03-03 05:24:00,16.7,12.7,30.36,North,355,0.0,2.0,84,0.00,,---,0.00,VWS V14.01,2013-03-03 14:24:00,
2013-03-03 05:29:00,17.1,12.8,30.36,North,355,0.0,2.0,83,0.00,,---,0.00,VWS V14.01,2013-03-03 14:29:00,
2013-03-03 05:30:00,17.1,12.6,30.36,North,355,0.0,2.0,82,0.00,,---,0.00,VWS V14.01,2013-03-03 14:30:00,
2013-03-03 05:34:00,16.8,12.0,30.36,North,355,0.0,0.0,81,0.00,,---,0.00,VWS V14.01,2013-03-03 14:34:00,
2013-03-03 05:39:00,16.5,11.7,30.36,North,355,0.0,0.0,81,0.00,,---,0.00,VWS V14.01,2013-03-03 14:39:00,
2013-03-03 05:44:00,16.2,11.7,30.37,North,355,0.0,1.0,82,0.00,,---,0.00,VWS V14.01,2013-03-03 14:44:00,
2013-03-03 05:49:00,15.9,11.1,30.36,North,355,0.0,1.0,81,0.00,,---,0.00,VWS V14.01,2013-03-03 14:49:00,
2013-03-03 05:54:00,15.7,11.5,30.36,North,355,0.0,1.0,83,0.00,,---,0.00,VWS V14.01,2013-03-03 14:54:00,
2013-03-03 05:59:00,15.8,13.9,30.36,North,355,0.0,1.0,92,0.00,,---,0.00,VWS V14.01,2013-03-03 14:59:00,
2013-03-03 06:00:00,15.9,11.9,30.37,North,355,0.0,1.0,84,0.00,,---,0.00,VWS V14.01,2013-03-03 15:00:00,
2013-03-03 06:04:00,15.9,11.9,30.37,North,355,0.0,0.0,84,0.00,,---,0.00,VWS V14.01,2013-03-03 15:04:00,
2013-03-03 06:09:00,16.2,12.0,30.37,North,355,0.0,0.0,83,0.00,,---,0.00,VWS V14.01,2013-03-03 15:09:00,
2013-03-03 06:14:00,16.4,11.9,30.38,North,355,0.0,1.0,82,0.00,,---,0.00,VWS V14.01,2013-03-03 15:14:00,
2013-03-03 06:19:00,16.2,11.7,30.38,North,355,0.0,1.0,82,0.00,,---,0.00,VWS V14.01,2013-03-03 15:19:00,
2013-03-03 06:24:00,15.7,11.2,30.38,North,355,0.0,1.0,82,0.00,,---,0.00,VWS V14.01,2013-03-03 15:24:00,
2013-03-03 06:29:00,15.1,10.6,30.38,North,355,0.0,1.0,82,0.00,,---,0.00,VWS V14.01,2013-03-03 15:29:00,
2013-03-03 06:30:00,14.9,10.7,30.38,North,355,0.0,1.0,83,0.00,,---,0.00,VWS V14.01,2013-03-03 15:30:00,
2013-03-03 06:34:00,14.5,10.3,30.38,North,355,1.0,1.0,83,0.00,,---,0.00,VWS V14.01,2013-03-03 15:34:00,
2013-03-03 06:39:00,14.1,10.2,30.38,North,355,2.0,2.0,84,0.00,,---,0.00,VWS V14.01,2013-03-03 15:39:00,
2013-03-03 06:44:00,14.0,10.3,30.38,North,355,0.0,2.0,85,0.00,,---,0.00,VWS V14.01,2013-03-03 15:44:00,
2013-03-03 06:49:00,14.5,11.1,30.38,North,355,0.0,2.0,86,0.00,,---,0.00,VWS V14.01,2013-03-03 15:49:00,
2013-03-03 06:54:00,15.1,11.7,30.38,North,355,0.0,2.0,86,0.00,,---,0.00,VWS V14.01,2013-03-03 15:54:00,
2013-03-03 06:59:00,15.7,12.0,30.39,North,355,0.0,2.0,85,0.00,,---,0.00,VWS V14.01,2013-03-03 15:59:00,
2013-03-03 07:00:00,15.9,14.0,30.38,North,355,0.0,2.0,92,0.00,,---,0.00,VWS V14.01,2013-03-03 16:00:00,
2013-03-03 07:04:00,16.0,11.8,30.38,North,355,0.0,0.0,83,0.00,,---,0.00,VWS V14.01,2013-03-03 16:04:00,
2013-03-03 07:09:00,16.1,11.9,30.38,North,355,0.0,0.0,83,0.00,,---,0.00,VWS V14.01,2013-03-03 16:09:00,
2013-03-03 07:14:00,16.6,12.4,30.38,North,355,0.0,0.0,83,0.00,,---,0.00,VWS V14.01,2013-03-03 16:14:00,
2013-03-03 07:19:00,17.4,13.1,30.38,North,355,0.0,0.0,83,0.00,,---,0.00,VWS V14.01,2013-03-03 16:19:00,
2013-03-03 07:24:00,18.0,13.2,30.38,North,355,0.0,2.0,81,0.00,,---,0.00,VWS V14.01,2013-03-03 16:24:00,
2013-03-03 07:29:00,18.2,13.1,30.38,North,355,0.0,2.0,80,0.00,,---,0.00,VWS V14.01,2013-03-03 16:29:00,
2013-03-03 07:30:00,18.0,12.6,30.38,North,355,0.0,2.0,79,0.00,,---,0.00,VWS V14.01,2013-03-03 16:30:00,
2013-03-03 07:34:00,17.7,12.0,30.38,North,355,0.0,1.0,78,0.00,,---,0.00,VWS V14.01,2013-03-03 16:34:00,
2013-03-03 07:39:00,17.0,11.6,30.38,North,355,0.0,1.0,79,0.00,,---,0.00,VWS V14.01,2013-03-03 16:39:00,
2013-03-03 07:44:00,16.9,11.8,30.38,North,355,0.0,1.0,80,0.00,,---,0.00,VWS V14.01,2013-03-03 16:44:00,
2013-03-03 07:49:00,16.9,11.8,30.39,North,355,0.0,1.0,80,0.00,,---,0.00,VWS V14.01,2013-03-03 16:49:00,
2013-03-03 07:54:00,16.9,11.8,30.39,North,355,0.0,1.0,80,0.00,,---,0.00,VWS V14.01,2013-03-03 16:54:00,
2013-03-03 07:59:00,16.9,11.8,30.38,North,355,0.0,1.0,80,0.00,,---,0.00,VWS V14.01,2013-03-03 16:59:00,
2013-03-03 08:00:00,16.9,11.8,30.39,North,355,0.0,1.0,80,0.00,,---,0.00,VWS V14.01,2013-03-03 17:00:00,
2013-03-03 08:04:00,16.9,11.8,30.39,North,355,0.0,0.0,80,0.00,,---,0.00,VWS V14.01,2013-03-03 17:04:00,
2013-03-03 08:09:00,16.9,11.8,30.39,North,355,0.0,0.0,80,0.00,,---,0.00,VWS V14.01,2013-03-03 17:09:00,
2013-03-03 08:14:00,16.9,11.8,30.39,North,355,0.0,0.0,80,0.00,,---,0.00,VWS V14.01,2013-03-03 17:14:00,
2013-03-03 08:19:00,16.9,11.8,30.39,North,355,0.0,0.0,80,0.00,,---,0.00,VWS V14.01,2013-03-03 17:19:00,
2013-03-03 08:24:00,16.9,11.8,30.39,North,355,0.0,0.0,80,0.00,,---,0.00,VWS V14.01,2013-03-03 17:24:00,
2013-03-03 08:29:00,16.9,11.8,30.39,North,355,0.0,0.0,80,0.00,,---,0.00,VWS V14.01,2013-03-03 17:29:00,
2013-03-03 08:30:00,16.9,11.8,30.40,North,355,0.0,0.0,80,0.00,,---,0.00,VWS V14.01,2013-03-03 17:30:00,
2013-03-03 08:34:00,16.9,11.8,30.40,North,355,0.0,0.0,80,0.00,,---,0.00,VWS V14.01,2013-03-03 17:34:00,
2013-03-03 08:39:00,16.9,11.8,30.39,North,355,0.0,0.0,80,0.00,,---,0.00,VWS V14.01,2013-03-03 17:39:00,
2013-03-03 08:43:00,16.9,11.8,30.39,North,355,0.0,0.0,80,0.00,,---,0.00,VWS V14.01,2013-03-03 17:43:00,
2013-03-03 08:48:00,16.9,11.8,30.39,North,355,0.0,0.0,80,0.00,,---,0.00,VWS V14.01,2013-03-03 17:48:00,
2013-03-03 08:53:00,16.9,11.8,30.40,North,355,0.0,0.0,80,0.00,,---,0.00,VWS V14.01,2013-03-03 17:53:00,
2013-03-03 08:58:00,16.9,11.8,30.40,North,355,0.0,0.0,80,0.00,,---,0.00,VWS V14.01,2013-03-03 17:58:00,
2013-03-03 09:00:00,16.9,11.8,30.40,North,355,0.0,0.0,80,0.00,,---,0.00,VWS V14.01,2013-03-03 18:00:00,
2013-03-03 09:03:00,16.9,11.8,30.41,North,355,0.0,0.0,80,0.00,,---,0.00,VWS V14.01,2013-03-03 18:03:00,
2013-03-03 09:08:00,16.9,11.8,30.41,North,355,0.0,0.0,80,0.00,,---,0.00,VWS V14.01,2013-03-03 18:08:00,
2013-03-03 09:13:00,16.9,11.8,30.41,North,355,0.0,0.0,80,0.00,,---,0.00,VWS V14.01,2013-03-03 18:13:00,
2013-03-03 09:18:00,16.9,11.8,30.41,North,355,0.0,0.0,80,0.00,,---,0.00,VWS V14.01,2013-03-03 18:18:00,
2013-03-03 09:23:00,16.9,11.8,30.41,North,355,0.0,0.0,80,0.00,,---,0.00,VWS V14.01,2013-03-03 18:23:00,
2013-03-03 09:28:00,16.9,11.8,30.41,North,355,0.0,0.0,80,0.00,,---,0.00,VWS V14.01,2013-03-03 18:28:00,
2013-03-03 09:30:00,16.9,11.8,30.41,North,355,0.0,0.0,80,0.00,,---,0.00,VWS V14.01,2013-03-03 18:30:00,
2013-03-03 09:33:00,16.9,11.8,30.41,North,355,0.0,0.0,80,0.00,,---,0.00,VWS V14.01,2013-03-03 18:33:00,
2013-03-03 09:38:00,16.9,11.8,30.41,North,355,0.0,0.0,80,0.00,,---,0.00,VWS V14.01,2013-03-03 18:38:00,
2013-03-03 09:43:00,16.9,11.8,30.42,North,355,0.0,0.0,80,0.00,,---,0.00,VWS V14.01,2013-03-03 18:43:00,
2013-03-03 09:48:00,16.9,11.8,30.42,North,355,0.0,0.0,80,0.00,,---,0.00,VWS V14.01,2013-03-03 18:48:00,
2013-03-03 09:53:00,16.9,11.8,30.42,North,355,0.0,0.0,80,0.00,,---,0.00,VWS V14.01,2013-03-03 18:53:00,
2013-03-03 09:58:00,16.9,11.8,30.42,North,355,0.0,0.0,80,0.00,,---,0.00,VWS V14.01,2013-03-03 18:58:00,
2013-03-03 10:00:00,16.9,11.8,30.42,North,355,0.0,0.0,80,0.00,,---,0.00,VWS V14.01,2013-03-03 19:00:00,
2013-03-03 10:03:00,16.9,11.8,30.42,North,355,0.0,0.0,80,0.00,,---,0.00,VWS V14.01,2013-03-03 19:03:00,
2013-03-03 10:08:00,16.9,11.8,30.42,North,355,0.0,0.0,80,0.00,,---,0.00,VWS V14.01,2013-03-03 19:08:00,
2013-03-03 10:13:00,16.9,11.8,30.42,North,355,0.0,0.0,80,0.00,,---,0.00,VWS V14.01,2013-03-03 19:13:00,
2013-03-03 10:18:00,16.9,11.8,30.42,North,355,0.0,0.0,80,0.00,,---,0.00,VWS V14.01,2013-03-03 19:18:00,
2013-03-03 10:23:00,16.9,11.8,30.43,North,355,0.0,0.0,80,0.00,,---,0.00,VWS V14.01,2013-03-03 19:23:00,
2013-03-03 10:28:00,16.9,11.8,30.42,North,355,0.0,0.0,80,0.00,,---,0.00,VWS V14.01,2013-03-03 19:28:00,
2013-03-03 10:30:00,16.9,11.8,30.42,North,355,0.0,0.0,80,0.00,,---,0.00,VWS V14.01,2013-03-03 19:30:00,
2013-03-03 10:33:00,16.9,11.8,30.42,North,355,0.0,0.0,80,0.00,,---,0.00,VWS V14.01,2013-03-03 19:33:00,
2013-03-03 10:38:00,16.9,11.8,30.42,ENE,57,0.0,0.0,80,0.00,,---,0.00,VWS V14.01,2013-03-03 19:38:00,
2013-03-03 10:43:00,20.2,13.6,30.42,ENE,57,1.0,1.0,75,0.00,,---,0.00,VWS V14.01,2013-03-03 19:43:00,
2013-03-03 10:48:00,21.0,14.0,30.42,ENE,57,0.0,1.0,74,0.00,,---,0.00,VWS V14.01,2013-03-03 19:48:00,
2013-03-03 10:53:00,21.6,13.7,30.42,ENE,57,1.0,1.0,71,0.00,,---,0.00,VWS V14.01,2013-03-03 19:53:00,
2013-03-03 10:58:00,21.7,13.1,30.43,ENE,57,0.0,1.0,69,0.00,,---,0.00,VWS V14.01,2013-03-03 19:58:00,
2013-03-03 11:00:00,21.7,12.8,30.43,ENE,57,0.0,1.0,68,0.00,,---,0.00,VWS V14.01,2013-03-03 20:00:00,
2013-03-03 11:03:00,21.6,12.7,30.42,ENE,57,0.0,0.0,68,0.00,,---,0.00,VWS V14.01,2013-03-03 20:03:00,
2013-03-03 11:08:00,21.7,13.1,30.43,ENE,57,0.0,1.0,69,0.00,,---,0.00,VWS V14.01,2013-03-03 20:08:00,
2013-03-03 11:13:00,22.0,13.1,30.43,ENE,57,0.0,1.0,68,0.00,,---,0.00,VWS V14.01,2013-03-03 20:13:00,
2013-03-03 11:18:00,22.5,13.6,30.43,ENE,57,0.0,1.0,68,0.00,,---,0.00,VWS V14.01,2013-03-03 20:18:00,
2013-03-03 11:23:00,22.4,12.8,30.43,ENE,57,0.0,2.0,66,0.00,,---,0.00,VWS V14.01,2013-03-03 20:23:00,
2013-03-03 11:28:00,22.6,13.0,30.43,ENE,57,0.0,2.0,66,0.00,,---,0.00,VWS V14.01,2013-03-03 20:28:00,
2013-03-03 11:30:00,22.6,13.0,30.44,ENE,57,1.0,2.0,66,0.00,,---,0.00,VWS V14.01,2013-03-03 20:30:00,
2013-03-03 11:33:00,22.6,13.0,30.44,ENE,57,0.0,1.0,66,0.00,,---,0.00,VWS V14.01,2013-03-03 20:33:00,
2013-03-03 11:38:00,22.3,12.7,30.44,ENE,57,0.0,2.0,66,0.00,,---,0.00,VWS V14.01,2013-03-03 20:38:00,
2013-03-03 11:43:00,22.5,13.2,30.44,ENE,57,0.0,2.0,67,0.00,,---,0.00,VWS V14.01,2013-03-03 20:43:00,
2013-03-03 11:49:00,22.8,12.8,30.44,ENE,57,0.0,0.0,65,0.00,,---,0.00,VWS V14.01,2013-03-03 20:49:00,
2013-03-03 11:54:00,23.0,12.6,30.44,ENE,57,0.0,2.0,64,0.00,,---,0.00,VWS V14.01,2013-03-03 20:54:00,
2013-03-03 11:59:00,23.2,13.9,30.45,ENE,57,0.0,2.0,67,0.00,,---,0.00,VWS V14.01,2013-03-03 20:59:00,
2013-03-03 12:00:00,26.9,15.3,30.46,South,176,0.0,5.0,61,0.00,,---,0.00,VWS V14.01,2013-03-03 21:00:00,
2013-03-03 12:04:00,23.9,14.6,30.45,ENE,57,0.0,0.0,67,0.00,,---,0.00,VWS V14.01,2013-03-03 21:04:00,
2013-03-03 12:09:00,24.8,15.1,30.44,ENE,57,0.0,0.0,66,0.00,,---,0.00,VWS V14.01,2013-03-03 21:09:00,
2013-03-03 12:14:00,25.6,15.1,30.45,ENE,57,1.0,2.0,64,0.00,,---,0.00,VWS V14.01,2013-03-03 21:14:00,
2013-03-03 12:19:00,26.1,15.2,30.45,ENE,57,0.0,2.0,63,0.00,,---,0.00,VWS V14.01,2013-03-03 21:19:00,
2013-03-03 12:24:00,26.7,15.4,30.45,ENE,57,0.0,2.0,62,0.00,,---,0.00,VWS V14.01,2013-03-03 21:24:00,
2013-03-03 12:29:00,26.9,15.3,30.45,ENE,57,1.0,2.0,61,0.00,,---,0.00,VWS V14.01,2013-03-03 21:29:00,
2013-03-03 12:30:00,28.6,15.3,30.46,South,169,0.0,4.0,57,0.00,,---,0.00,VWS V14.01,2013-03-03 21:30:00,
2013-03-03 12:34:00,27.0,15.4,30.45,ENE,62,1.0,2.0,61,0.00,,---,0.00,VWS V14.01,2013-03-03 21:34:00,
2013-03-03 12:39:00,27.0,15.0,30.45,ENE,62,3.0,3.0,60,0.00,,---,0.00,VWS V14.01,2013-03-03 21:39:00,
2013-03-03 12:44:00,27.0,15.0,30.45,South,176,0.0,5.0,60,0.00,,---,0.00,VWS V14.01,2013-03-03 21:44:00,
2013-03-03 12:49:00,27.0,15.0,30.45,South,176,0.0,5.0,60,0.00,,---,0.00,VWS V14.01,2013-03-03 21:49:00,
2013-03-03 12:54:00,26.9,14.5,30.46,South,176,0.0,5.0,59,0.00,,---,0.00,VWS V14.01,2013-03-03 21:54:00,
2013-03-03 12:59:00,26.9,14.9,30.46,South,176,1.0,5.0,60,0.00,,---,0.00,VWS V14.01,2013-03-03 21:59:00,
2013-03-03 13:00:00,28.2,14.9,30.46,SSE,158,1.0,4.0,57,0.00,,---,0.00,VWS V14.01,2013-03-03 22:00:00,
2013-03-03 13:04:00,27.1,15.4,30.46,South,176,0.0,2.0,61,0.00,,---,0.00,VWS V14.01,2013-03-03 22:04:00,
2013-03-03 13:09:00,27.1,15.1,30.46,South,176,0.0,2.0,60,0.00,,---,0.00,VWS V14.01,2013-03-03 22:09:00,
2013-03-03 13:14:00,27.2,15.2,30.46,South,176,0.0,2.0,60,0.00,,---,0.00,VWS V14.01,2013-03-03 22:14:00,
2013-03-03 13:19:00,27.4,15.4,30.46,South,176,2.0,2.0,60,0.00,,---,0.00,VWS V14.01,2013-03-03 22:19:00,
2013-03-03 13:24:00,27.9,15.4,30.46,South,176,0.0,2.0,59,0.00,,---,0.00,VWS V14.01,2013-03-03 22:24:00,
2013-03-03 13:29:00,28.4,15.1,30.46,South,169,0.0,4.0,57,0.00,,---,0.00,VWS V14.01,2013-03-03 22:29:00,
2013-03-03 13:30:00,28.2,14.5,30.46,SSE,158,1.0,2.0,56,0.00,,---,0.00,VWS V14.01,2013-03-03 22:30:00,
2013-03-03 13:34:00,28.6,15.3,30.46,South,169,1.0,4.0,57,0.00,,---,0.00,VWS V14.01,2013-03-03 22:34:00,
2013-03-03 13:39:00,28.6,15.3,30.46,South,169,1.0,4.0,57,0.00,,---,0.00,VWS V14.01,2013-03-03 22:39:00,
2013-03-03 13:44:00,28.6,15.3,30.46,South,169,2.0,4.0,57,0.00,,---,0.00,VWS V14.01,2013-03-03 22:44:00,
2013-03-03 13:49:00,28.5,15.2,30.46,South,169,0.0,4.0,57,0.00,,---,0.00,VWS V14.01,2013-03-03 22:49:00,
2013-03-03 13:54:00,28.4,15.1,30.46,South,169,4.0,4.0,57,0.00,,---,0.00,VWS V14.01,2013-03-03 22:54:00,
2013-03-03 13:59:00,28.3,14.6,30.46,SSE,158,1.0,4.0,56,0.00,,---,0.00,VWS V14.01,2013-03-03 22:59:00,
2013-03-03 14:00:00,28.6,14.9,30.46,SSE,158,0.0,2.0,56,0.00,,---,0.00,VWS V14.01,2013-03-03 23:00:00,
2013-03-03 14:04:00,28.1,14.8,30.46,SSE,159,1.0,1.0,57,0.00,,---,0.00,VWS V14.01,2013-03-03 23:04:00,
2013-03-03 14:09:00,28.0,14.8,30.46,SSE,158,0.0,1.0,57,0.00,,---,0.00,VWS V14.01,2013-03-03 23:09:00,
2013-03-03 14:14:00,28.1,14.8,30.46,SSE,158,1.0,2.0,57,0.00,,---,0.00,VWS V14.01,2013-03-03 23:14:00,
2013-03-03 14:19:00,28.2,14.5,30.46,SSE,158,0.0,2.0,56,0.00,,---,0.00,VWS V14.01,2013-03-03 23:19:00,
2013-03-03 14:24:00,28.1,14.4,30.46,SSE,158,0.0,2.0,56,0.00,,---,0.00,VWS V14.01,2013-03-03 23:24:00,
2013-03-03 14:29:00,28.2,14.5,30.46,SSE,158,0.0,2.0,56,0.00,,---,0.00,VWS V14.01,2013-03-03 23:29:00,
2013-03-03 14:30:00,29.0,14.4,30.46,SSE,158,0.0,2.0,54,0.00,,---,0.00,VWS V14.01,2013-03-03 23:30:00,
2013-03-03 14:34:00,28.3,15.0,30.46,SSE,158,0.0,1.0,57,0.00,,---,0.00,VWS V14.01,2013-03-03 23:34:00,
2013-03-03 14:39:00,28.4,14.7,30.46,SSE,158,1.0,2.0,56,0.00,,---,0.00,VWS V14.01,2013-03-03 23:39:00,
2013-03-03 14:44:00,28.5,14.8,30.46,SSE,158,1.0,2.0,56,0.00,,---,0.00,VWS V14.01,2013-03-03 23:44:00,
2013-03-03 14:49:00,28.6,14.9,30.46,SSE,159,0.0,2.0,56,0.00,,---,0.00,VWS V14.01,2013-03-03 23:49:00,
2013-03-03 14:54:00,28.7,15.0,30.46,SSE,158,0.0,2.0,56,0.00,,---,0.00,VWS V14.01,2013-03-03 23:54:00,
2013-03-03 14:59:00,28.7,15.0,30.46,SSE,158,1.0,2.0,56,0.00,,---,0.00,VWS V14.01,2013-03-03 23:59:00,
2013-03-03 15:00:00,29.2,14.2,30.47,SSE,158,0.0,2.0,53,0.00,,---,0.00,VWS V14.01,2013-03-04 00:00:00,
2013-03-03 15:04:00,28.7,15.0,30.46,SSE,158,0.0,0.0,56,0.00,,---,0.00,VWS V14.01,2013-03-04 00:04:00,
2013-03-03 15:09:00,28.7,15.4,30.46,SSE,158,0.0,1.0,57,0.00,,---,0.00,VWS V14.01,2013-03-04 00:09:00,
2013-03-03 15:14:00,28.8,15.1,30.46,SSE,158,0.0,1.0,56,0.00,,---,0.00,VWS V14.01,2013-03-04 00:14:00,
2013-03-03 15:19:00,29.0,15.3,30.46,SSE,158,0.0,1.0,56,0.00,,---,0.00,VWS V14.01,2013-03-04 00:19:00,
2013-03-03 15:24:00,29.0,14.9,30.46,SSE,158,0.0,2.0,55,0.00,,---,0.00,VWS V14.01,2013-03-04 00:24:00,
2013-03-03 15:29:00,29.0,14.9,30.46,SSE,158,0.0,2.0,55,0.00,,---,0.00,VWS V14.01,2013-03-04 00:29:00,
2013-03-03 15:30:00,29.1,15.0,30.47,SSE,158,0.0,1.0,55,0.00,,---,0.00,VWS V14.01,2013-03-04 00:30:00,
2013-03-03 15:34:00,28.9,14.4,30.46,SSE,158,0.0,1.0,54,0.00,,---,0.00,VWS V14.01,2013-03-04 00:34:00,
2013-03-03 15:39:00,29.0,14.9,30.46,SSE,158,0.0,2.0,55,0.00,,---,0.00,VWS V14.01,2013-03-04 00:39:00,
2013-03-03 15:44:00,29.0,14.4,30.46,SSE,158,0.0,2.0,54,0.00,,---,0.00,VWS V14.01,2013-03-04 00:44:00,
2013-03-03 15:49:00,29.0,14.9,30.47,SSE,158,0.0,2.0,55,0.00,,---,0.00,VWS V14.01,2013-03-04 00:49:00,
2013-03-03 15:54:00,29.0,14.0,30.47,SSE,158,0.0,2.0,53,0.00,,---,0.00,VWS V14.01,2013-03-04 00:54:00,
2013-03-03 15:59:00,29.1,14.1,30.47,SSE,158,0.0,2.0,53,0.00,,---,0.00,VWS V14.01,2013-03-04 00:59:00,
2013-03-03 16:00:00,28.2,14.1,30.48,SSE,158,0.0,1.0,55,0.00,,---,0.00,VWS V14.01,2013-03-04 01:00:00,
2013-03-03 16:04:00,29.1,14.1,30.47,SSE,158,0.0,1.0,53,0.00,,---,0.00,VWS V14.01,2013-03-04 01:04:00,
2013-03-03 16:09:00,29.2,14.2,30.47,SSE,158,1.0,1.0,53,0.00,,---,0.00,VWS V14.01,2013-03-04 01:09:00,
2013-03-03 16:14:00,29.3,14.3,30.47,SSE,158,0.0,1.0,53,0.00,,---,0.00,VWS V14.01,2013-03-04 01:14:00,
2013-03-03 16:19:00,29.3,14.3,30.47,SSE,158,0.0,1.0,53,0.00,,---,0.00,VWS V14.01,2013-03-04 01:19:00,
2013-03-03 16:24:00,29.3,14.3,30.48,SSE,158,0.0,1.0,53,0.00,,---,0.00,VWS V14.01,2013-03-04 01:24:00,
2013-03-03 16:29:00,29.3,15.1,30.47,SSE,158,0.0,1.0,55,0.00,,---,0.00,VWS V14.01,2013-03-04 01:29:00,
2013-03-03 16:30:00,27.9,14.2,30.48,SSE,158,0.0,1.0,56,0.00,,---,0.00,VWS V14.01,2013-03-04 01:30:00,
2013-03-03 16:34:00,28.9,14.8,30.48,SSE,158,0.0,0.0,55,0.00,,---,0.00,VWS V14.01,2013-03-04 01:34:00,
2013-03-03 16:39:00,28.7,14.6,30.47,SSE,158,0.0,1.0,55,0.00,,---,0.00,VWS V14.01,2013-03-04 01:39:00,
2013-03-03 16:44:00,28.4,14.3,30.47,SSE,158,0.0,1.0,55,0.00,,---,0.00,VWS V14.01,2013-03-04 01:44:00,
2013-03-03 16:49:00,28.3,14.6,30.47,SSE,158,0.0,1.0,56,0.00,,---,0.00,VWS V14.01,2013-03-04 01:49:00,
2013-03-03 16:54:00,28.3,14.6,30.47,SSE,159,0.0,1.0,56,0.00,,---,0.00,VWS V14.01,2013-03-04 01:54:00,
2013-03-03 16:59:00,28.3,14.2,30.47,SSE,158,0.0,1.0,55,0.00,,---,0.00,VWS V14.01,2013-03-04 01:59:00,
2013-03-03 17:00:00,27.1,14.3,30.48,SSE,158,0.0,1.0,58,0.00,,---,0.00,VWS V14.01,2013-03-04 02:00:00,
2013-03-03 17:04:00,28.3,14.2,30.48,SSE,158,0.0,0.0,55,0.00,,---,0.00,VWS V14.01,2013-03-04 02:04:00,
2013-03-03 17:09:00,28.2,14.1,30.47,SSE,158,0.0,1.0,55,0.00,,---,0.00,VWS V14.01,2013-03-04 02:09:00,
2013-03-03 17:14:00,28.2,14.1,30.47,SSE,158,0.0,1.0,55,0.00,,---,0.00,VWS V14.01,2013-03-04 02:14:00,
2013-03-03 17:19:00,28.1,14.0,30.48,SSE,158,0.0,1.0,55,0.00,,---,0.00,VWS V14.01,2013-03-04 02:19:00,
2013-03-03 17:24:00,28.1,14.0,30.48,SSE,158,0.0,1.0,55,0.00,,---,0.00,VWS V14.01,2013-03-04 02:24:00,
2013-03-03 17:29:00,27.9,14.2,30.48,SSE,158,0.0,1.0,56,0.00,,---,0.00,VWS V14.01,2013-03-04 02:29:00,
2013-03-03 17:30:00,26.3,13.9,30.49,SSE,158,0.0,1.0,59,0.00,,---,0.00,VWS V14.01,2013-03-04 02:30:00,
2013-03-03 17:34:00,27.8,14.2,30.48,SSE,158,0.0,1.0,56,0.00,,---,0.00,VWS V14.01,2013-03-04 02:34:00,
2013-03-03 17:39:00,27.8,14.2,30.48,SSE,158,0.0,1.0,56,0.00,,---,0.00,VWS V14.01,2013-03-04 02:39:00,
2013-03-03 17:44:00,27.7,14.1,30.48,SSE,158,0.0,1.0,56,0.00,,---,0.00,VWS V14.01,2013-03-04 02:44:00,
2013-03-03 17:48:00,27.5,14.3,30.48,SSE,158,0.0,1.0,57,0.00,,---,0.00,VWS V14.01,2013-03-04 02:48:00,
2013-03-03 17:53:00,27.4,14.2,30.48,SSE,158,0.0,1.0,57,0.00,,---,0.00,VWS V14.01,2013-03-04 02:53:00,
2013-03-03 17:58:00,27.2,14.4,30.48,SSE,158,0.0,1.0,58,0.00,,---,0.00,VWS V14.01,2013-03-04 02:58:00,
2013-03-03 18:00:00,25.1,14.3,30.50,SSE,158,0.0,0.0,63,0.00,,---,0.00,VWS V14.01,2013-03-04 03:00:00,
2013-03-03 18:03:00,27.1,14.3,30.48,SSE,158,0.0,0.0,58,0.00,,---,0.00,VWS V14.01,2013-03-04 03:03:00,
2013-03-03 18:08:00,26.9,14.9,30.48,SSE,158,0.0,1.0,60,0.00,,---,0.00,VWS V14.01,2013-03-04 03:08:00,
2013-03-03 18:13:00,26.9,14.5,30.48,SSE,158,0.0,1.0,59,0.00,,---,0.00,VWS V14.01,2013-03-04 03:13:00,
2013-03-03 18:18:00,26.7,13.9,30.49,SSE,158,0.0,1.0,58,0.00,,---,0.00,VWS V14.01,2013-03-04 03:18:00,
2013-03-03 18:23:00,26.6,14.2,30.49,SSE,158,0.0,1.0,59,0.00,,---,0.00,VWS V14.01,2013-03-04 03:23:00,
2013-03-03 18:28:00,26.4,14.0,30.49,SSE,158,0.0,1.0,59,0.00,,---,0.00,VWS V14.01,2013-03-04 03:28:00,
2013-03-03 18:30:00,24.7,14.3,30.51,SSE,158,0.0,1.0,64,0.00,,---,0.00,VWS V14.01,2013-03-04 03:30:00,
2013-03-03 18:33:00,26.2,13.8,30.49,SSE,158,0.0,0.0,59,0.00,,---,0.00,VWS V14.01,2013-03-04 03:33:00,
2013-03-03 18:38:00,26.2,14.2,30.49,SSE,159,0.0,0.0,60,0.00,,---,0.00,VWS V14.01,2013-03-04 03:38:00,
2013-03-03 18:43:00,25.9,14.3,30.49,SSE,158,0.0,0.0,61,0.00,,---,0.00,VWS V14.01,2013-03-04 03:43:00,
2013-03-03 18:48:00,25.6,14.4,30.50,SSE,158,0.0,0.0,62,0.00,,---,0.00,VWS V14.01,2013-03-04 03:48:00,
2013-03-03 18:53:00,25.4,14.6,30.50,SSE,158,0.0,0.0,63,0.00,,---,0.00,VWS V14.01,2013-03-04 03:53:00,
2013-03-03 18:58:00,25.2,14.4,30.50,SSE,158,0.0,0.0,63,0.00,,---,0.00,VWS V14.01,2013-03-04 03:58:00,
2013-03-03 19:00:00,23.7,13.7,30.52,SSE,158,0.0,1.0,65,0.00,,---,0.00,VWS V14.01,2013-03-04 04:00:00,
2013-03-03 19:03:00,25.0,14.2,30.50,SSE,158,0.0,0.0,63,0.00,,---,0.00,VWS V14.01,2013-03-04 04:03:00,
2013-03-03 19:08:00,24.8,14.4,30.50,SSE,158,0.0,0.0,64,0.00,,---,0.00,VWS V14.01,2013-03-04 04:08:00,
2013-03-03 19:13:00,24.6,14.2,30.50,SSE,158,0.0,1.0,64,0.00,,---,0.00,VWS V14.01,2013-03-04 04:13:00,
2013-03-03 19:18:00,24.5,14.4,30.50,SSE,158,0.0,1.0,65,0.00,,---,0.00,VWS V14.01,2013-03-04 04:18:00,
2013-03-03 19:23:00,24.6,14.2,30.51,SSE,158,0.0,1.0,64,0.00,,---,0.00,VWS V14.01,2013-03-04 04:23:00,
2013-03-03 19:28:00,24.7,14.3,30.51,SSE,158,0.0,1.0,64,0.00,,---,0.00,VWS V14.01,2013-03-04 04:28:00,
2013-03-03 19:30:00,22.9,13.3,30.52,ENE,63,0.0,4.0,66,0.00,,---,0.00,VWS V14.01,2013-03-04 04:30:00,
2013-03-03 19:33:00,24.6,14.2,30.51,SSE,158,0.0,0.0,64,0.00,,---,0.00,VWS V14.01,2013-03-04 04:33:00,
2013-03-03 19:38:00,24.5,14.1,30.51,SSE,158,0.0,1.0,64,0.00,,---,0.00,VWS V14.01,2013-03-04 04:38:00,
2013-03-03 19:43:00,24.5,14.1,30.51,SSE,158,0.0,1.0,64,0.00,,---,0.00,VWS V14.01,2013-03-04 04:43:00,
2013-03-03 19:48:00,24.3,13.9,30.51,SSE,158,0.0,1.0,64,0.00,,---,0.00,VWS V14.01,2013-03-04 04:48:00,
2013-03-03 19:53:00,24.0,14.0,30.51,SSE,158,0.0,1.0,65,0.00,,---,0.00,VWS V14.01,2013-03-04 04:53:00,
2013-03-03 19:58:00,23.8,13.8,30.52,SSE,158,0.0,1.0,65,0.00,,---,0.00,VWS V14.01,2013-03-04 04:58:00,
2013-03-03 20:00:00,23.7,13.7,30.52,SSE,158,0.0,1.0,65,0.00,,---,0.00,VWS V14.01,2013-03-04 05:00:00,
2013-03-03 20:05:00,23.6,13.6,30.52,SSE,158,0.0,1.0,65,0.00,,---,0.00,VWS V14.01,2013-03-04 05:05:00,
2013-03-03 20:10:00,23.5,13.5,30.52,SSE,158,0.0,1.0,65,0.00,,---,0.00,VWS V14.01,2013-03-04 05:10:00,
2013-03-03 20:15:00,23.5,13.5,30.52,SSE,158,2.0,2.0,65,0.00,,---,0.00,VWS V14.01,2013-03-04 05:15:00,
2013-03-03 20:20:00,23.4,13.7,30.52,SSE,158,0.0,2.0,66,0.00,,---,0.00,VWS V14.01,2013-03-04 05:20:00,
2013-03-03 20:25:00,23.2,13.5,30.52,SSE,158,2.0,2.0,66,0.00,,---,0.00,VWS V14.01,2013-03-04 05:25:00,
2013-03-03 20:30:00,22.9,13.3,30.52,ENE,63,2.0,4.0,66,0.00,,---,0.00,VWS V14.01,2013-03-04 05:30:00,
2013-03-03 20:35:00,22.9,13.3,30.52,ENE,61,0.0,4.0,66,0.00,,---,0.00,VWS V14.01,2013-03-04 05:35:00,
2013-03-03 20:40:00,23.2,12.8,30.52,ENE,61,0.0,4.0,64,0.00,,---,0.00,VWS V14.01,2013-03-04 05:40:00,
2013-03-03 20:45:00,23.4,13.0,30.52,ENE,61,0.0,4.0,64,0.00,,---,0.00,VWS V14.01,2013-03-04 05:45:00,
2013-03-03 20:50:00,23.4,13.4,30.52,ENE,61,0.0,4.0,65,0.00,,---,0.00,VWS V14.01,2013-03-04 05:50:00,
2013-03-03 20:55:00,23.5,13.5,30.52,ENE,62,0.0,4.0,65,0.00,,---,0.00,VWS V14.01,2013-03-04 05:55:00,
2013-03-03 21:00:00,23.5,13.1,30.52,ENE,62,0.0,4.0,64,0.00,,---,0.00,VWS V14.01,2013-03-04 06:00:00,
2013-03-03 21:05:00,23.4,13.4,30.52,ENE,62,0.0,0.0,65,0.00,,---,0.00,VWS V14.01,2013-03-04 06:05:00,
2013-03-03 21:10:00,23.3,13.3,30.51,ENE,62,0.0,0.0,65,0.00,,---,0.00,VWS V14.01,2013-03-04 06:10:00,
2013-03-03 21:15:00,23.0,13.4,30.51,ENE,62,0.0,0.0,66,0.00,,---,0.00,VWS V14.01,2013-03-04 06:15:00,
2013-03-03 21:20:00,22.8,13.5,30.52,ENE,62,0.0,0.0,67,0.00,,---,0.00,VWS V14.01,2013-03-04 06:20:00,
2013-03-03 21:25:00,22.8,13.2,30.52,ENE,62,0.0,0.0,66,0.00,,---,0.00,VWS V14.01,2013-03-04 06:25:00,
2013-03-03 21:30:00,22.8,13.5,30.52,ENE,62,0.0,1.0,67,0.00,,---,0.00,VWS V14.01,2013-03-04 06:30:00,
2013-03-03 21:35:00,22.6,13.3,30.52,ENE,62,1.0,1.0,67,0.00,,---,0.00,VWS V14.01,2013-03-04 06:35:00,
2013-03-03 21:40:00,22.2,13.6,30.52,ENE,62,0.0,1.0,69,0.00,,---,0.00,VWS V14.01,2013-03-04 06:40:00,
2013-03-03 21:45:00,21.7,13.4,30.52,ENE,62,0.0,1.0,70,0.00,,---,0.00,VWS V14.01,2013-03-04 06:45:00,
2013-03-03 21:50:00,21.5,14.2,30.52,ENE,62,0.0,1.0,73,0.00,,---,0.00,VWS V14.01,2013-03-04 06:50:00,
2013-03-03 21:55:00,21.4,13.1,30.52,ENE,62,0.0,1.0,70,0.00,,---,0.00,VWS V14.01,2013-03-04 06:55:00,
2013-03-03 22:00:00,21.4,13.5,30.53,ENE,62,0.0,2.0,71,0.00,,---,0.00,VWS V14.01,2013-03-04 07:00:00,
2013-03-03 22:05:00,21.2,13.3,30.53,ENE,62,0.0,0.0,71,0.00,,---,0.00,VWS V14.01,2013-03-04 07:05:00,
2013-03-03 22:10:00,20.9,13.3,30.53,ENE,62,0.0,1.0,72,0.00,,---,0.00,VWS V14.01,2013-03-04 07:10:00,
2013-03-03 22:15:00,21.2,13.0,30.53,ENE,62,0.0,1.0,70,0.00,,---,0.00,VWS V14.01,2013-03-04 07:15:00,
2013-03-03 22:20:00,21.5,12.9,30.53,ENE,62,0.0,1.0,69,0.00,,---,0.00,VWS V14.01,2013-03-04 07:20:00,
2013-03-03 22:25:00,21.6,13.0,30.53,ENE,62,0.0,1.0,69,0.00,,---,0.00,VWS V14.01,2013-03-04 07:25:00,
2013-03-03 22:29:00,21.4,12.8,30.53,ENE,62,2.0,3.0,69,0.00,,---,0.00,VWS V14.01,2013-03-04 07:29:00,
2013-03-03 22:30:00,22.4,11.7,30.53,ESE,106,0.0,4.0,63,0.00,,---,0.00,VWS V14.01,2013-03-04 07:30:00,
2013-03-03 22:34:00,21.3,12.7,30.53,ENE,62,2.0,2.0,69,0.00,,---,0.00,VWS V14.01,2013-03-04 07:34:00,
2013-03-03 22:39:00,21.6,12.7,30.53,ENE,62,2.0,3.0,68,0.00,,---,0.00,VWS V14.01,2013-03-04 07:39:00,
2013-03-03 22:44:00,21.9,12.6,30.53,SE,140,2.0,4.0,67,0.00,,---,0.00,VWS V14.01,2013-03-04 07:44:00,
2013-03-03 22:49:00,22.1,12.5,30.53,ESE,103,1.0,4.0,66,0.00,,---,0.00,VWS V14.01,2013-03-04 07:49:00,
2013-03-03 22:54:00,22.2,12.2,30.53,ESE,102,1.0,4.0,65,0.00,,---,0.00,VWS V14.01,2013-03-04 07:54:00,
2013-03-03 22:59:00,22.6,11.9,30.53,ESE,105,2.0,4.0,63,0.00,,---,0.00,VWS V14.01,2013-03-04 07:59:00,
2013-03-03 23:00:00,23.2,12.1,30.54,East,87,0.0,4.0,62,0.00,,---,0.00,VWS V14.01,2013-03-04 08:00:00,
2013-03-03 23:04:00,23.0,12.3,30.53,ESE,106,2.0,4.0,63,0.00,,---,0.00,VWS V14.01,2013-03-04 08:04:00,
2013-03-03 23:09:00,22.9,12.2,30.53,ESE,106,1.0,4.0,63,0.00,,---,0.00,VWS V14.01,2013-03-04 08:09:00,
2013-03-03 23:14:00,22.8,12.1,30.53,ESE,106,0.0,4.0,63,0.00,,---,0.00,VWS V14.01,2013-03-04 08:14:00,
2013-03-03 23:19:00,22.6,11.9,30.54,ESE,106,0.0,4.0,63,0.00,,---,0.00,VWS V14.01,2013-03-04 08:19:00,
2013-03-03 23:24:00,22.3,11.6,30.54,ESE,106,0.0,4.0,63,0.00,,---,0.00,VWS V14.01,2013-03-04 08:24:00,
2013-03-03 23:29:00,22.4,11.7,30.53,ESE,106,1.0,4.0,63,0.00,,---,0.00,VWS V14.01,2013-03-04 08:29:00,
2013-03-03 23:30:00,23.0,11.9,30.54,East,87,0.0,2.0,62,0.00,,---,0.00,VWS V14.01,2013-03-04 08:30:00,
2013-03-03 23:34:00,22.5,11.8,30.54,ESE,107,2.0,2.0,63,0.00,,---,0.00,VWS V14.01,2013-03-04 08:34:00,
2013-03-03 23:39:00,22.7,11.6,30.54,ESE,107,0.0,4.0,62,0.00,,---,0.00,VWS V14.01,2013-03-04 08:39:00,
2013-03-03 23:44:00,22.8,11.8,30.54,ESE,107,0.0,4.0,62,0.00,,---,0.00,VWS V14.01,2013-03-04 08:44:00,
2013-03-03 23:49:00,22.7,11.6,30.54,ESE,107,0.0,4.0,62,0.00,,---,0.00,VWS V14.01,2013-03-04 08:49:00,
2013-03-03 23:54:00,22.6,11.9,30.54,East,94,1.0,4.0,63,0.00,,---,0.00,VWS V14.01,2013-03-04 08:54:00,
2013-03-03 23:59:00,23.0,11.9,30.54,East,91,0.0,4.0,62,0.00,,---,0.00,VWS V14.01,2013-03-04 08:59:00,